Weather History for St. Joseph, MO

Change the Weather History Date:

Sunday, June 23, 2013

  Actual Average Record
Temperature  
Mean Temperature 76 °F 75 °F  
Max Temperature 83 °F 85 °F 102 °F (1937)
Min Temperature 68 °F 65 °F 50 °F (1972)
Degree Days  
Heating Degree Days 0 0  
Month to date heating degree days 15 6  
Since 1 June heating degree days 15 6  
Since 1 July heating degree days 5614 5456  
Cooling Degree Days 11 10  
Month to date cooling degree days 195 191  
Year to date cooling degree days 321 304  
Since 1 June cooling degree days 195 191  
Growing Degree Days 25 (Base 50)    
Moisture  
Dew Point 67 °F    
Average Humidity 76    
Maximum Humidity 84    
Minimum Humidity 67    
Precipitation  
Precipitation 0.10 in 0.12 in 2.07 in (1976)
Month to date precipitation 1.34 3.45  
Year to date precipitation 15.39 16.40  
Sea Level Pressure  
Sea Level Pressure 29.87 in    
Wind  
Wind Speed 12 mph (SE)    
Max Wind Speed 36 mph    
Max Gust Speed 46 mph    
Visibility 10 miles    
Events Rain , Thunderstorm    
T = Trace of Precipitation, MM = Missing Value Source: NWS Daily Summary

Daily Weather History Graph

Daily Weather History Graph

Search for Another Location

Airport:

Trip Planner

Search our weather history database for the weather conditions in past years. The results will help you decide how hot, cold, wet, or windy it might be!

Date:

Astronomy

Jun. 23, 2013 Rise Set
Actual Time 5:52 AM CDT 8:51 PM CDT
Civil Twilight 5:19 AM CDT 9:24 PM CDT
Nautical Twilight 4:38 AM CDT 10:05 PM CDT
Astronomical Twilight 3:49 AM CDT 10:53 PM CDT
Moon 9:04 PM CDT 6:10 AM CDT
Length of Visible Light 16h 04m
Length of Day
14h 59m
Full, 100% of the Moon is Illuminated
Jun 23
Full
Jun 29
Last Quarter
Jul 8
New
Jul 15
First Quarter
Jul 22
Full

Hourly Weather History & Observations

Time (CDT) Temp. Heat Index Dew Point Humidity Pressure Visibility Wind Dir Wind Speed Gust Speed Precip Events Conditions
12:53 AM 80.1 °F 82.7 °F 68.0 °F 67% 29.86 in 10.0 mi South 13.8 mph - N/A   Clear
1:53 AM 80.1 °F 82.7 °F 68.0 °F 67% 29.82 in 10.0 mi South 17.3 mph 24.2 mph N/A   Clear
2:53 AM 80.1 °F 82.7 °F 68.0 °F 67% 29.85 in 10.0 mi South 15.0 mph - N/A   Clear
3:53 AM 79.0 °F - 68.0 °F 69% 29.85 in 10.0 mi South 10.4 mph - N/A   Clear
4:53 AM 78.1 °F - 68.0 °F 71% 29.84 in 10.0 mi South 13.8 mph - N/A   Clear
5:53 AM 78.1 °F - 68.0 °F 71% 29.83 in 10.0 mi South 13.8 mph 23.0 mph N/A   Clear
6:53 AM 78.1 °F - 68.0 °F 71% 29.82 in 10.0 mi South 15.0 mph 23.0 mph N/A   Clear
7:53 AM 79.0 °F - 68.0 °F 69% 29.85 in 10.0 mi SSW 12.7 mph 25.3 mph N/A   Clear
8:15 AM 78.8 °F - 69.8 °F 74% 29.92 in 10.0 mi West 9.2 mph - N/A   Mostly Cloudy
8:32 AM 78.8 °F - 69.8 °F 74% 29.94 in 10.0 mi West 6.9 mph - N/A   Overcast
8:53 AM 72.0 °F - 62.1 °F 71% 29.94 in 10.0 mi North 21.9 mph 29.9 mph N/A   Overcast
9:53 AM 71.1 °F - 62.1 °F 73% 29.96 in 10.0 mi Calm Calm - 0.00 in   Overcast
10:17 AM 69.8 °F - 62.6 °F 78% 29.96 in 10.0 mi NNE 6.9 mph - 0.00 in Rain , Thunderstorm Light Rain
10:53 AM 68.0 °F - 64.0 °F 87% 29.91 in 9.0 mi East 15.0 mph 19.6 mph 0.03 in Rain , Thunderstorm Light Rain
11:01 AM 68.0 °F - 64.4 °F 88% 29.93 in 10.0 mi ESE 11.5 mph - 0.01 in Rain Light Rain
11:08 AM 69.8 °F - 62.6 °F 78% 29.92 in 10.0 mi East 16.1 mph 21.9 mph 0.02 in Rain Light Rain
11:24 AM 69.8 °F - 64.4 °F 83% 29.93 in 10.0 mi ESE 16.1 mph - 0.02 in Rain , Thunderstorm Light Rain
11:35 AM 69.8 °F - 64.4 °F 83% 29.94 in 10.0 mi East 15.0 mph 21.9 mph 0.02 in Thunderstorm Scattered Clouds
11:53 AM 69.1 °F - 64.0 °F 84% 29.93 in 9.0 mi East 18.4 mph 24.2 mph 0.03 in Rain , Thunderstorm Light Rain
12:53 PM 69.1 °F - 64.0 °F 84% 29.84 in 9.0 mi SE 28.8 mph 38.0 mph 0.04 in Rain , Thunderstorm Light Rain
1:01 PM 69.8 °F - 64.4 °F 83% 29.81 in 10.0 mi SE 34.5 mph 43.7 mph 0.00 in Rain Light Rain
1:53 PM 75.9 °F - 64.9 °F 69% 29.78 in 10.0 mi SSE 9.2 mph 18.4 mph 0.00 in   Clear
2:53 PM 79.0 °F - 69.1 °F 72% 29.86 in 10.0 mi NNW 4.6 mph - N/A   Mostly Cloudy
3:53 PM 81.0 °F 84.4 °F 70.0 °F 69% 29.84 in 10.0 mi NNE 8.1 mph - N/A   Clear
4:53 PM 81.0 °F 84.4 °F 70.0 °F 69% 29.86 in 10.0 mi East 8.1 mph - N/A   Mostly Cloudy
5:53 PM 82.9 °F 87.5 °F 71.1 °F 67% 29.84 in 10.0 mi East 10.4 mph - N/A   Partly Cloudy
6:53 PM 81.0 °F 84.4 °F 70.0 °F 69% 29.82 in 10.0 mi ESE 6.9 mph - N/A   Scattered Clouds
7:53 PM 80.1 °F 83.8 °F 72.0 °F 76% 29.83 in 10.0 mi ESE 9.2 mph - N/A   Clear
8:53 PM 79.0 °F - 72.0 °F 79% 29.85 in 10.0 mi ESE 10.4 mph - N/A   Partly Cloudy
9:53 PM 79.0 °F - 72.0 °F 79% 29.87 in 10.0 mi SSE 11.5 mph - N/A   Clear
10:53 PM 78.1 °F - 71.1 °F 79% 29.88 in 10.0 mi SSE 6.9 mph - N/A   Clear
11:53 PM 77.0 °F - 70.0 °F 79% 29.89 in 10.0 mi South 4.6 mph - N/A   Clear